Regional Weather Roundup
Issued by NWS Sterling, VA

Home | Current Version | Previous Version | Text Only | Print | Product List | Glossary On
Versions: 1 2 3 4 5 6 7 8 9 10 11 12 13 14 15 16 17 18 19 20 21 22 23 24 25 26 27 28 29 30 31 32 33 34 35 36 37 38 39 40 41 42 43 44 45 46 47 48 49 50
941
ASUS41 KLWX 221111
RWRLWX

REGIONAL WEATHER ROUNDUP
NATIONAL WEATHER SERVICE BALTIMORE MD/WASHINGTON DC
700 AM EDT MON JUL 22 2019

Note: "FAIR" indicates few or no clouds below 12,000 feet
with no significant weather and/or obstructions to visibility.
 TC=TEMPERATURE CELSIUS

 * =Non NWS site. Station does not report precipitation (e.g. rain,
    snow, etc.), thunder, or fog.

DCZ001-MDZ009-015-VAZ040>042-051-053>054-221200-
WASHINGTON METRO

CITY           SKY/WX    TMP DP  RH WIND       PRES   REMARKS
WASHINGTON NAT FAIR      79  70  74 E3        29.86F
DULLES         FAIR      73  69  87 CALM      29.87S
ANDREWS AFB    FAIR      75  71  86 E5        29.86F
FT BELVOIR     FAIR      72  70  93 CALM      29.86S
QUANTICO       FAIR      77  72  84 SW3       29.87S
COLLEGE PARK*  FAIR     N/A N/A N/A CALM      29.86S
LEESBURG*      FAIR      72  70  94 CALM      29.88S
MANASSAS*      FAIR      71  70  96 S3        29.87S
GAITHERSBURG*  FAIR      73  69  87 CALM      29.89F

$$

MDZ006>007-011-014-221200-
BALTIMORE METRO

CITY           SKY/WX    TMP DP  RH WIND       PRES   REMARKS
BWI AIRPORT    FAIR      76  71  85 CALM      29.86F
MD SCIENCE CTR   N/A     81  69  67 MISG      29.86F
MARTIN STATE   MOSUNNY   79  75  89 CALM      29.87S
ANNAPOLIS      FAIR      82  74  76 CALM      29.86F
ABERDEEN*      MOSUNNY   73  72  94 CALM      29.86S
FORT MEADE*    FAIR      70  70 100 CALM      29.89F

$$

MDZ012-015-019>023-221200-
MARYLAND EASTERN SHORE

CITY           SKY/WX    TMP DP  RH WIND       PRES   REMARKS
OCEAN CITY     FAIR      82  76  81 W8        29.87S
SALISBURY      FAIR      79  75  87 SW3       29.87R
BAY BRIDGE AP* FAIR      81  73  78 CALM      29.86F
CAMBRIDGE*     SUNNY     77  75  94 CALM      29.87S
EASTON*        SUNNY     77  75  94 CALM      29.90S

$$

MDZ017>025-221200-
SOUTHERN MARYLAND

CITY           SKY/WX    TMP DP  RH WIND       PRES   REMARKS
PATUXENT RIVER FAIR      78  72  81 CALM      29.87S
ST INIGOES     FAIR      83  72  69 S5        29.86F
LEONARDTOWN*   FAIR      73  72  94 CALM      29.89S

$$

MDZ003>005-221200-
NORTH CENTRAL MARYLAND

CITY           SKY/WX    TMP DP  RH WIND       PRES   REMARKS
FREDERICK*     FAIR      73  70  88 CALM      29.90S
HAGERSTOWN APT MOCLDY    72  72 100 S3        29.88R

$$

MDZ501>502-221200-
WESTERN MARYLAND

CITY           SKY/WX    TMP DP  RH WIND       PRES   REMARKS
OAKLAND*       CLOUDY    66  66 100 SW6       29.99R
CUMBERLAND*    FAIR      71  68  89 CALM      29.93R

$$

VAZ025>031-221200-
SHENANDOAH VALLEY

CITY           SKY/WX    TMP DP  RH WIND       PRES   REMARKS
WINCHESTER*    FAIR      70  68  94 W5        29.89S
FRONT ROYAL*   FAIR      70  70 100 S6        29.88S
LURAY*         FAIR      70  70 100 CALM      29.91S
NEW MARKET*    FAIR      69  68  96 CALM      29.90S
STAUNTON*      FAIR      68  67  99 CALM      29.95S FOG
WAYNESBORO*    FAIR      69  69 100 SW5       29.95S

$$

WVZ021-048>050-054>055-221200-
EASTERN WEST VIRGINIA PANHANDLE

CITY           SKY/WX    TMP DP  RH WIND       PRES   REMARKS
MARTINSBURG    FAIR      71  69  93 CALM      29.87S
PETERSBURG*    FAIR      68  68  99 CALM      29.91S

$$

VAZ036>039-050-221200-
CENTRAL FOOTHILLS

CITY           SKY/WX    TMP DP  RH WIND       PRES   REMARKS
CHARLOTTESVILL FAIR      75  69  81 CALM      29.89S
CULPEPER*      FAIR      72  70  93 CALM      29.88S
ORANGE*        FAIR      70  68  94 CALM      29.89R
GORDONSVILLE*  FAIR      71  71 100 S3        29.89R
WARRENTON*     FAIR      71  67  87 CALM      29.87S

$$

VAZ055>057-221200-
NORTH AND CENTRAL PIEDMONT

CITY           SKY/WX    TMP DP  RH WIND       PRES   REMARKS
FREDERICKSBRG* FAIR      74  73  95 S3        29.86F
STAFFORD*      FAIR      71  71 100 CALM      29.91S

$$

NCZ024-NYZ072-PAZ021-071-VAZ022-071-221200-
OTHER REGIONAL OBSERVATIONS

CITY           SKY/WX    TMP DP  RH WIND       PRES   REMARKS
NEW YORK CITY  FAIR      79  69  71 VRB5      29.88R
PHILADELPHIA   FAIR      79  69  71 CALM      29.86R
PITTSBURGH     CLOUDY    72  71  97 S5        29.87R
ROANOKE        FAIR      73  69  87 NW5       29.97R
RICHMOND       FAIR      76  72  87 S7        29.89S
RALEIGH        FAIR      77  71  82 SW12      29.97S

$$

ANZ530>537-221200-
MARINE OBSERVATIONS

STATION/POSITION TIME  TEMP    WIND        PRES
                       AIR SEA DIR/SP/G
                 (UTC) (F)     (DEG/KT/KT) (MB)
THOMAS PT LIGHT  1100   80 85  270/  2/  2 1012.2F
BALT KEY BRIDGE  1024   79     250/  5/  5 1011.2
COVE POINT       1030   81     260/  4/  6 1012.0S
LEWISETTA        1018   78 88  240/  6/  8 1011.5
SOLOMONS ISLAND  1030   80 86  220/  4/  5 1011.0F
PINEY POINT      1030          240/  5/  6   N/A

$$





USA.gov is the U.S. government's official web portal to all federal, state and local government web resources and services.